Tracking 18665 objects as of 24-June-2017
HD Live streaming from Space Station
objects crossing your sky now

COSMOS 1626

Track COSMOS 1626 now!
10-day predictions
COSMOS 1626 is classified as:


NORAD ID: 15494
Int'l Code: 1985-009A
Perigee: 503.3 km
Apogee: 508.1 km
Inclination: 82.5 °
Period: 94.6 minutes
Semi major axis: 6876 km
RCS: 7.281 m2 (large)
Launch date: January 24, 1985
Source: Commonwealth of Independent States (former USSR) (CIS)
Launch site: PLESETSK MISSILE AND SPACE COMPLEX (PKMTR)
Your satellite tracking list
Your tracking list is empty





NASA's NSSDC Master Catalog

Two Line Element Set (TLE):
1 15494U 85009A   17173.76927121 +.00000852 +00000-0 +35432-4 0  9995
2 15494 082.4803 244.0858 0003517 057.5162 302.6414 15.22423677769622
Source of the keplerian elements: AFSPC